Regional Weather Roundup
Issued by NWS Albany, NY

Home | Current Version | Previous Version | Text Only | Print | Product List | Glossary On
Versions: 1 2 3 4 5 6 7 8 9 10 11 12 13 14 15 16 17 18 19 20 21 22 23 24 25 26 27 28 29 30 31 32 33 34 35 36 37 38 39 40 41 42 43 44 45 46 47 48 49 50
000
ASUS41 KALY 240210
RWRALY

NEW YORK STATE HOURLY WEATHER ROUNDUP
NATIONAL WEATHER SERVICE ALBANY NY
1000 PM EDT WED MAY 23 2018

NOTE: "FAIR" INDICATES FEW OR NO CLOUDS BELOW 12,000 FEET WITH NO
SIGNIFICANT WEATHER AND/OR NO OBSTRUCTIONS TO VISIBILITY.

NYZ032-033-038>043-046>054-057>066-NYZ062>081-082-084-240300-
EAST


CITY           SKY/WX    TMP DP  RH WIND       PRES   REMARKS
ALBANY         FAIR      68  50  52 W14       30.01R
GLENS FALLS    FAIR      66  44  45 N6        29.99R
POUGHKEEPSIE   FAIR      61  52  72 E3        29.98R
NEWBURGH       CLEAR     68  50  52 W6        30.01R
MONTGOMERY     FAIR      62  53  72 CALM      30.00R
WHITE PLAINS   FAIR      64  56  75 NW6       29.99R
ISLIP          FAIR      69  55  60 W5        29.97R
NEW YORK CITY  FAIR      78  49  35 NW16      29.98R
CENTRAL PARK   FAIR      75  49  39 W3        30.02R
$$

NYZ005>009-017-018-044>046-055-056-240300-
CENTRAL


CITY           SKY/WX    TMP DP  RH WIND       PRES   REMARKS
FULTON         FAIR      65  53  65 W14       30.04R
SYRACUSE       FAIR      67  50  54 W7        30.04R
ROME           FAIR      59  53  80 CALM      30.06R
ELMIRA         FAIR      58  52  80 CALM      30.09R
BINGHAMTON     FAIR      63  50  62 NW7       30.08R
$$

NYZ026>034-041>043-087-240300-
NORTH


CITY           SKY/WX    TMP DP  RH WIND       PRES   REMARKS
WATERTOWN      FAIR      54  48  80 CALM      30.05R
FORT DRUM      NOT AVBL
OGDENSBURG     FAIR      55  49  80 NW3       30.04R
MASSENA        FAIR      52  43  71 CALM      30.04R
SARANAC LAKE   FAIR      54  41  61 W3        30.03R
PLATTSBURGH    FAIR      65  30  27 NW9       29.98R
$$

NYZ001>004-010>016-019>021-085-240300-
WEST


CITY           SKY/WX    TMP DP  RH WIND       PRES   REMARKS
NIAGARA FALLS  FAIR      55  49  80 S6        30.13R
BUFFALO        FAIR      54  50  86 SW10      30.14R
DUNKIRK        FAIR      59  54  83 SW6       30.15R
JAMESTOWN      FAIR      60  49  66 NW5       30.18R
WELLSVILLE     FAIR      63  51  65 W15       30.16S
ROCHESTER      FAIR      62  53  72 W9        30.10R
PENN YAN       FAIR      65  50  58 W6        30.09R
$$

             KEY
       WCI = WIND CHILL INDEX
       VSB = VISIBILITY
       HX  = HEAT INDEX
$$



USA.gov is the U.S. government's official web portal to all federal, state and local government web resources and services.